Temperature
19 19 21 21 21 22 21 20 18 18 16 16 17 16 16 16 15 15 15 15 15 16 17 17 17 18 18 18 18 17 16 16 15 15 14 13 13 13 12 12 12 11 12 12
20 21 21 20 21 21 21 20 18 16 17 17 17 15 14 14 13 13 13 13 14 15 16 16 16 16 16 17 17 17 17 16 15 14 14 13 13 13 12 12 11 11 12 12
18 19 19 18 20 20 18 17 17 16 15 14 14 12 11 12 12 12 12 12 12 14 15 15 15 14 15 16 16 17 16 16 16 15 14 13 13 13 12 12 11 11 11 12
17 18 18 20 20 18 15 13 13 12 10 10 10 11 11 11 11 11 12 12 12 12 13 13 13 13 13 14 15 16 16 16 16 15 14 13 13 13 12 12 11 11 12 12
16 17 18 20 19 19 18 12 11 10 9 9 9 11 11 11 12 11 11 12 12 12 12 12 12 13 12 12 14 15 15 15 15 15 14 14 13 13 12 11 11 11 12 12
16 16 16 16 16 15 17 12 9 8 8 7 8 8 9 10 10 11 11 10 10 11 11 11 10 11 11 11 11 12 13 13 13 15 15 14 14 13 12 11 11 12 12 11
16 16 17 13 13 15 15 10 8 8 8 8 7 7 8 9 9 9 10 10 10 10 10 10 10 10 10 10 10 10 11 12 13 13 14 14 14 13 12 12 11 12 12 12
16 16 13 11 12 11 9 9 10 10 9 9 9 9 10 10 10 10 10 10 10 10 10 10 10 10 10 9 9 9 9 10 11 11 13 14 14 13 12 12 11 12 12 12
13 12 11 10 10 10 11 11 11 10 11 11 10 10 10 10 10 10 10 10 10 9 9 9 10 9 9 9 9 9 9 8 9 9 11 13 13 12 12 12 12 11 11 12
11 10 11 11 12 11 11 10 11 11 11 11 10 10 9 9 9 9 10 9 9 9 9 9 9 9 9 8 8 8 8 8 8 9 9 11 13 12 12 12 12 12 11 12
10 10 11 11 12 11 11 11 11 11 11 10 9 9 9 9 9 10 9 9 9 9 9 9 9 9 9 8 8 8 8 8 8 8 9 9 11 12 12 12 12 12 12 12
9 11 10 11 13 12 12 12 12 11 11 11 10 9 10 10 9 9 9 9 9 9 9 9 8 8 8 8 8 8 8 7 7 8 8 9 11 12 12 11 11 12 12 12
12 12 12 12 12 12 11 11 11 11 10 10 10 10 9 9 8 8 7 7 8 8 8 8 8 8 8 8 7 7 7 7 7 7 8 8 10 11 12 11 11 11 11 12
12 12 12 11 11 11 11 10 10 10 10 10 9 9 8 8 7 7 6 6 6 7 8 8 9 8 8 7 7 7 7 7 7 7 7 8 9 11 12 12 12 11 11 11
11 11 11 11 11 10 10 10 9 9 9 8 8 8 7 6 5 5 5 5 5 5 5 7 8 8 8 8 7 7 6 7 7 6 7 8 9 10 11 12 12 11 11 11
11 10 10 10 10 9 9 9 8 8 8 7 7 6 5 5 4 3 3 4 4 4 4 5 5 7 8 8 7 6 6 6 6 7 7 8 8 9 10 11 12 11 11 11
10 9 9 9 9 9 9 8 8 8 7 6 5 4 4 3 3 3 3 3 3 3 3 3 3 4 6 7 7 6 6 6 6 7 7 8 8 9 10 11 12 12 12 12
9 9 9 9 9 8 8 8 7 6 5 5 4 4 3 3 2 2 2 2 2 2 2 3 3 4 5 5 6 6 6 7 7 7 7 8 8 9 10 11 12 12 12 12
9 9 9 9 9 8 8 7 6 5 5 4 3 3 3 2 2 2 2 2 2 2 2 2 2 3 4 4 5 6 6 6 6 7 7 8 9 9 10 11 12 12 11 11
9 9 9 8 8 7 7 6 5 4 4 3 3 2 2 2 2 3 3 3 3 2 2 1 2 2 3 4 5 6 6 6 6 7 7 8 9 9 10 11 12 12 11 11
9 8 8 8 7 7 6 5 4 4 3 3 3 3 3 3 3 3 3 3 2 2 2 2 2 3 4 5 6 6 7 7 7 7 7 9 9 10 11 11 12 12 11 12
8 8 8 7 7 6 6 5 5 3 3 3 3 3 3 4 4 4 3 3 3 3 4 4 4 5 5 6 7 7 7 6 7 8 9 10 10 12 12 11 12 12 12 12
8 8 7 7 6 5 5 5 4 3 3 3 3 4 4 4 4 3 4 4 4 4 4 5 5 6 6 7 7 7 7 7 8 9 10 11 12 12 12 12 12 12 12 12
7 7 6 6 5 4 4 4 5 4 3 4 4 5 5 5 5 5 5 5 5 5 5 6 6 6 7 7 7 6 7 8 8 10 11 11 12 12 12 12 12 12 12 12
7 6 6 5 4 3 3 5 5 4 3 4 4 5 5 6 6 6 6 6 6 6 6 6 6 6 6 6 6 7 8 9 10 10 11 11 12 12 12 12 12 12 12 11
6 6 5 4 3 2 3 4 3 3 3 4 4 5 5 5 6 6 7 7 7 6 7 7 7 7 7 7 8 8 9 10 10 11 12 12 12 12 12 12 12 12 12 12
6 5 4 3 3 3 4 5 4 3 4 3 4 5 5 5 6 7 7 7 7 7 7 7 7 7 7 7 8 9 9 9 10 11 11 11 12 12 12 12 12 12 12 12
Wind_Speed
8 8 7 10 13 16 13 13 9 4 9 2 1 6 7 7 11 13 14 14 14 15 14 12 11 9 7 8 9 9 8 9 9 8 7 7 6 6 4 3 3 4 4 5
4 6 7 10 13 11 3 4 7 11 5 3 3 7 10 12 12 11 12 12 11 10 10 9 12 16 13 10 9 9 8 9 8 9 9 8 7 7 5 3 2 3 3 3
4 5 8 5 5 6 9 11 4 6 9 11 9 9 9 10 11 12 12 14 13 11 10 9 9 9 12 11 10 7 9 10 10 10 10 9 8 7 6 5 5 7 7 4
2 4 2 3 4 14 14 13 13 13 14 16 16 6 7 11 10 10 10 10 11 9 8 8 9 10 12 13 12 9 10 10 10 11 11 9 9 8 7 6 6 6 5 6
2 3 6 2 4 3 2 7 10 9 11 14 18 13 9 18 13 11 10 10 10 10 7 7 7 9 12 13 13 12 10 9 10 13 13 11 9 9 7 6 6 6 6 6
3 3 6 3 10 15 9 1 7 9 12 13 13 12 13 20 21 20 18 18 18 15 9 7 8 7 8 11 13 10 10 11 10 12 15 13 11 9 6 6 7 8 7 7
3 5 4 7 14 13 4 2 4 4 5 7 4 11 16 18 17 16 14 16 18 16 10 7 6 5 7 8 10 12 11 11 11 14 14 13 10 8 8 8 9 8 7 6
2 4 5 13 8 7 2 2 6 8 9 10 12 16 16 16 17 17 16 16 16 13 9 8 5 4 7 7 6 8 11 12 11 11 12 12 11 9 10 11 10 9 8 6
4 3 1 6 8 5 5 6 9 10 13 13 14 16 16 16 16 16 16 15 12 11 12 10 8 6 7 7 6 6 9 11 11 9 10 11 12 11 9 11 10 9 8 7
3 4 1 5 6 5 5 11 16 16 17 18 18 18 18 17 17 16 17 15 14 13 12 12 11 10 10 9 7 7 11 11 10 9 9 11 10 11 11 10 11 10 9 8
4 5 5 6 7 10 13 16 18 18 17 20 20 21 21 19 19 19 18 16 16 14 15 14 13 12 12 11 9 7 9 12 8 8 10 10 12 12 12 13 13 12 10 11
2 5 5 10 14 16 17 17 19 19 20 21 20 20 22 19 19 18 17 17 18 19 18 14 11 11 11 14 12 8 7 9 7 6 10 9 10 8 5 9 16 17 17 14
5 9 10 15 15 16 15 17 18 18 18 17 17 16 15 14 11 12 14 15 17 20 21 16 12 11 12 13 11 9 7 8 7 8 8 9 9 12 10 4 7 13 17 19
8 9 11 10 13 16 16 16 19 18 16 18 17 14 15 13 12 15 16 17 18 19 18 17 16 13 11 11 10 8 7 9 8 9 10 9 8 10 12 13 11 8 7 10
10 12 13 15 14 14 14 18 20 19 19 18 18 18 19 17 20 21 19 19 20 20 17 16 16 14 11 9 10 8 7 8 8 8 9 8 7 7 10 12 13 10 6 4
13 12 13 14 16 17 18 19 18 20 21 20 18 19 21 23 25 26 26 25 22 22 18 12 15 16 12 8 9 9 8 10 10 8 9 7 6 8 9 11 12 11 11 9
13 14 16 20 21 20 19 21 23 21 17 17 22 27 27 24 22 23 22 21 18 17 13 14 18 20 13 9 8 8 7 7 10 9 9 6 6 9 10 11 12 11 10 11
11 12 17 18 18 20 22 22 17 16 17 23 27 26 26 25 24 25 23 21 20 18 17 20 18 14 12 7 7 7 8 7 8 7 6 5 7 9 11 11 12 12 9 11
12 13 15 17 18 19 19 13 15 19 22 25 26 26 25 26 26 25 24 21 20 18 15 13 15 15 11 9 8 7 9 8 8 7 6 9 10 12 13 12 12 12 11 11
12 15 17 18 18 16 14 18 21 22 24 26 26 25 26 27 25 24 23 17 13 11 13 14 15 11 8 10 13 9 10 8 8 8 7 9 12 13 13 15 14 12 12 12
14 16 18 18 15 16 18 20 21 23 26 26 26 26 25 25 21 19 17 12 9 9 10 11 7 7 8 11 11 8 7 6 7 8 8 9 13 14 14 14 14 13 13 12
13 15 16 13 15 20 21 21 22 24 25 26 27 27 25 22 17 14 13 9 9 9 8 7 7 10 12 12 8 5 5 5 8 7 6 9 12 13 12 13 13 13 12 12
13 14 11 11 15 20 22 23 23 24 26 27 26 25 23 19 12 10 12 12 11 12 10 9 12 16 16 6 5 5 6 8 5 2 4 10 12 12 12 12 12 12 11 11
14 11 10 13 17 20 22 24 23 22 24 25 25 25 22 17 11 9 9 13 14 14 11 12 14 13 7 3 3 3 5 5 5 5 4 6 9 9 9 11 11 11 11 12
11 9 11 15 16 16 18 21 21 21 21 22 24 24 21 16 11 11 11 12 15 14 12 12 13 9 5 5 5 3 5 6 6 5 3 4 8 9 9 9 10 11 11 11
8 8 10 12 13 14 15 16 16 17 18 18 20 21 18 16 16 13 13 14 14 13 11 9 8 5 5 6 2 7 7 7 5 5 6 2 6 9 9 10 10 10 9 10
8 10 12 15 15 14 15 16 16 17 18 18 19 21 17 15 17 17 17 15 14 12 9 6 4 2 3 6 8 7 6 6 5 5 4 1 4 5 7 9 8 8 8 8
Wind_Direction
227 249 272 290 297 297 282 264 243 144 115 115 29 66 57 41 40 32 24 21 19 12 12 3 339 308 265 241 225 217 208 210 212 209 209 216 228 233 244 273 325 38 61 80
252 271 289 299 302 294 311 39 96 99 107 227 301 72 50 38 45 31 18 11 8 11 18 8 356 341 310 280 255 236 225 221 204 204 210 212 219 217 208 220 210 172 182 128
269 300 322 332 338 54 58 21 45 73 27 5 10 39 48 38 30 22 14 359 348 351 352 345 335 337 339 319 289 256 242 224 198 199 208 211 209 205 201 199 178 190 188 176
238 360 332 250 106 102 85 43 35 43 30 19 3 330 46 29 5 349 340 324 309 308 316 321 323 329 333 339 311 270 233 221 196 193 204 207 201 200 199 175 174 168 173 176
183 211 265 258 6 311 170 69 44 52 30 12 353 356 335 331 322 309 301 291 285 284 285 297 309 328 338 332 339 327 289 241 208 191 195 203 201 192 190 167 166 173 175 170
190 228 253 273 323 325 317 127 51 38 14 2 359 343 316 309 315 318 318 320 318 308 298 304 310 333 347 329 322 326 322 308 267 205 188 200 199 178 174 170 170 171 168 174
244 249 256 336 322 323 312 332 13 4 321 328 303 266 280 294 294 289 294 299 303 307 299 282 294 328 327 336 331 328 317 318 302 245 193 195 187 171 166 167 162 168 170 171
282 288 318 348 2 21 14 221 254 276 279 272 262 265 277 285 289 291 290 293 300 305 291 276 288 312 311 314 310 321 318 316 299 266 221 188 179 172 169 162 165 171 170 171
42 60 39 69 112 175 212 262 284 294 294 281 270 273 279 280 282 285 284 283 280 293 296 288 284 282 280 277 281 302 303 302 300 289 238 202 178 170 169 166 171 176 176 176
97 40 112 145 165 209 265 281 284 284 282 276 270 275 277 277 279 281 282 284 283 286 286 288 285 274 260 256 271 296 299 294 296 296 269 220 189 171 173 178 180 179 177 179
60 0 307 290 308 277 269 272 275 279 277 270 271 276 277 277 278 277 277 276 275 274 278 275 276 280 276 258 250 251 276 279 271 284 278 234 202 184 182 187 186 182 183 176
300 256 243 267 271 272 287 287 282 283 283 282 280 275 276 276 274 275 274 270 266 266 270 263 258 263 268 266 253 248 263 272 262 271 280 257 208 184 175 192 193 184 173 171
248 257 262 276 285 286 284 280 281 285 284 284 283 280 272 274 273 286 287 284 278 274 269 251 235 240 257 262 248 246 260 278 276 263 271 274 225 191 177 158 191 187 179 177
288 294 299 286 290 294 295 292 294 292 292 293 290 282 284 279 279 289 288 287 285 286 273 248 234 232 244 257 251 240 249 263 262 265 252 254 242 202 180 176 178 176 172 177
311 305 297 301 307 305 308 312 311 308 311 310 302 300 304 304 301 294 287 285 279 277 273 265 249 238 228 233 235 228 229 241 247 261 263 249 250 206 183 177 180 169 139 125
323 313 314 317 313 312 314 312 310 309 311 314 319 317 311 304 298 293 290 285 277 273 265 271 274 256 228 218 225 229 227 233 241 258 275 247 229 200 187 177 176 172 171 166
322 326 327 322 321 320 316 314 316 318 322 322 316 310 306 303 299 296 297 293 285 278 268 267 269 267 248 218 223 234 236 238 243 255 268 231 215 197 184 176 172 170 170 168
306 308 313 314 312 317 321 321 324 318 313 313 311 308 307 304 299 295 292 290 283 276 274 272 261 256 252 227 222 235 246 248 249 249 256 246 214 207 182 172 168 165 166 172
298 308 312 314 318 322 323 324 317 313 310 313 313 310 308 307 304 299 290 280 276 272 272 278 274 274 260 241 253 249 242 231 242 245 244 255 216 200 180 170 167 167 163 157
311 322 321 321 325 330 330 323 319 317 316 314 313 312 310 309 309 307 302 289 275 270 270 266 264 264 261 269 271 254 235 226 240 249 247 235 195 179 171 169 168 166 164 164
320 325 326 328 333 328 323 322 322 319 317 318 316 315 317 316 318 321 327 325 308 287 279 281 270 259 258 259 261 243 217 227 244 251 229 200 175 170 166 163 166 169 171 171
320 324 327 332 330 328 329 326 323 322 320 321 322 323 324 322 328 334 340 332 320 313 301 294 280 263 263 264 246 211 193 232 262 247 210 172 163 165 164 161 163 171 175 174
319 322 324 324 332 330 328 326 326 327 324 324 327 327 328 327 331 335 335 331 328 318 313 299 287 288 292 273 218 184 211 242 222 154 149 156 158 155 157 159 162 169 176 177
322 323 321 333 337 334 329 326 328 328 326 327 334 336 336 336 336 331 318 314 316 317 316 307 304 314 319 286 243 215 221 169 103 45 59 133 151 155 157 158 161 169 175 178
320 323 336 344 339 331 325 326 328 328 331 334 334 336 336 341 332 311 315 316 318 322 324 318 312 311 309 283 261 221 140 105 78 47 32 144 158 159 167 167 167 168 172 179
329 335 337 336 330 327 325 325 324 325 331 332 332 332 333 340 340 337 328 321 319 319 320 322 324 326 324 322 75 108 98 93 79 37 20 54 161 166 166 168 170 168 174 186
339 341 336 335 335 333 327 325 325 325 326 326 328 327 326 336 339 338 337 330 321 313 306 307 314 31 16 15 61 77 77 64 33 352 321 18 126 170 172 167 170 172 175 182
Height
1517 1513 1510 1509 1505 1500 1501 1498 1508 1504 1512 1509 1503 1502 1502 1499 1497 1494 1493 1492 1491 1488 1485 1483 1483 1480 1477 1472 1469 1468 1466 1464 1462 1461 1461 1460 1458 1456 1456 1457 1455 1454 1452 1451
1514 1508 1506 1506 1500 1494 1494 1496 1503 1507 1508 1505 1503 1504 1501 1499 1499 1499 1498 1495 1492 1488 1484 1483 1481 1478 1475 1470 1467 1464 1462 1460 1459 1457 1457 1457 1456 1455 1455 1456 1455 1455 1454 1454
1521 1511 1509 1514 1501 1499 1504 1506 1505 1511 1515 1510 1512 1508 1506 1503 1500 1495 1493 1494 1491 1487 1483 1480 1476 1474 1468 1465 1463 1460 1460 1456 1454 1453 1452 1452 1453 1453 1453 1454 1454 1454 1456 1456
1522 1518 1530 1512 1498 1498 1507 1515 1513 1514 1516 1516 1516 1512 1507 1505 1502 1497 1494 1492 1490 1485 1478 1474 1471 1467 1462 1459 1457 1453 1453 1452 1450 1449 1448 1447 1447 1450 1451 1451 1453 1454 1456 1457
1523 1525 1517 1505 1500 1498 1500 1516 1518 1517 1516 1514 1512 1504 1503 1503 1498 1491 1487 1484 1481 1479 1475 1471 1466 1461 1457 1454 1450 1446 1446 1446 1444 1443 1443 1443 1443 1444 1447 1449 1451 1453 1455 1457
1519 1525 1525 1514 1505 1499 1500 1514 1520 1518 1517 1513 1509 1510 1502 1496 1494 1486 1480 1477 1474 1471 1468 1467 1461 1455 1451 1449 1447 1443 1441 1439 1439 1438 1437 1438 1438 1438 1443 1447 1449 1452 1453 1456
1517 1520 1511 1516 1508 1501 1511 1526 1524 1517 1516 1512 1507 1507 1497 1489 1488 1485 1479 1476 1471 1465 1462 1459 1456 1451 1447 1441 1440 1437 1433 1430 1429 1429 1431 1432 1432 1433 1437 1443 1446 1449 1452 1454
1515 1516 1526 1519 1510 1519 1527 1523 1519 1514 1511 1505 1500 1495 1491 1487 1483 1479 1474 1470 1465 1462 1458 1453 1448 1444 1441 1437 1433 1430 1427 1421 1418 1419 1421 1424 1425 1428 1431 1437 1441 1445 1448 1451
1523 1529 1530 1524 1522 1526 1524 1520 1516 1513 1508 1503 1496 1491 1484 1479 1476 1471 1468 1463 1460 1456 1450 1444 1441 1439 1436 1432 1428 1422 1420 1414 1409 1410 1411 1415 1417 1421 1426 1430 1435 1439 1443 1446
1523 1528 1527 1524 1523 1523 1521 1517 1511 1505 1499 1496 1489 1482 1478 1472 1467 1462 1458 1454 1451 1446 1440 1436 1433 1430 1426 1423 1420 1414 1410 1406 1402 1404 1402 1404 1409 1412 1418 1423 1428 1432 1436 1441
1527 1529 1527 1525 1522 1518 1511 1505 1501 1495 1491 1486 1480 1473 1467 1460 1456 1451 1446 1442 1440 1436 1429 1425 1422 1419 1415 1413 1411 1406 1402 1400 1398 1397 1396 1396 1400 1403 1409 1414 1420 1425 1430 1435
1535 1531 1528 1521 1514 1510 1505 1500 1495 1489 1483 1477 1471 1466 1460 1452 1447 1441 1436 1432 1428 1424 1419 1414 1412 1409 1407 1403 1399 1396 1393 1392 1390 1390 1389 1389 1392 1396 1401 1407 1414 1421 1426 1431
1531 1528 1524 1517 1510 1505 1500 1494 1488 1483 1476 1469 1462 1456 1449 1442 1437 1431 1427 1423 1418 1413 1408 1402 1400 1398 1397 1393 1390 1388 1387 1385 1383 1385 1384 1383 1385 1388 1393 1400 1407 1414 1420 1426
1529 1524 1517 1511 1505 1499 1493 1488 1482 1474 1468 1460 1452 1445 1439 1432 1425 1419 1415 1411 1406 1401 1396 1392 1389 1387 1387 1384 1381 1380 1380 1379 1380 1380 1379 1378 1377 1380 1385 1391 1397 1404 1412 1419
1525 1520 1514 1507 1500 1494 1487 1481 1474 1465 1458 1451 1444 1436 1428 1421 1414 1408 1401 1396 1391 1385 1382 1380 1378 1376 1377 1375 1374 1373 1373 1374 1374 1373 1372 1369 1369 1372 1379 1385 1391 1397 1404 1412
1519 1514 1508 1502 1495 1489 1482 1474 1466 1457 1449 1441 1434 1427 1420 1411 1401 1392 1386 1380 1375 1369 1366 1366 1366 1366 1367 1366 1365 1365 1364 1364 1364 1364 1362 1360 1362 1366 1372 1379 1385 1391 1398 1405
1515 1509 1503 1496 1490 1482 1476 1468 1460 1451 1441 1433 1425 1415 1405 1394 1385 1377 1370 1365 1360 1355 1352 1352 1353 1354 1356 1356 1356 1355 1354 1355 1355 1355 1352 1352 1356 1362 1368 1374 1380 1386 1393 1400
1513 1508 1502 1494 1486 1477 1469 1462 1454 1445 1435 1425 1412 1401 1392 1382 1372 1363 1355 1349 1344 1341 1339 1338 1339 1341 1344 1346 1347 1347 1346 1347 1347 1347 1346 1347 1352 1358 1364 1370 1377 1384 1390 1397
1509 1503 1496 1490 1482 1474 1465 1456 1448 1439 1427 1415 1403 1392 1383 1372 1362 1353 1343 1336 1331 1328 1327 1327 1329 1332 1333 1336 1338 1339 1339 1341 1340 1339 1342 1342 1347 1354 1359 1366 1374 1381 1387 1393
1504 1498 1492 1484 1476 1469 1460 1451 1442 1430 1418 1406 1394 1384 1372 1361 1353 1344 1335 1328 1324 1321 1319 1318 1320 1322 1325 1327 1330 1331 1332 1333 1333 1332 1334 1338 1343 1350 1357 1364 1372 1378 1384 1390
1499 1493 1487 1480 1471 1464 1456 1446 1435 1422 1410 1398 1387 1377 1367 1356 1348 1340 1332 1326 1323 1319 1316 1314 1315 1317 1319 1321 1323 1325 1327 1327 1327 1326 1328 1333 1341 1348 1355 1362 1369 1375 1381 1387
1496 1490 1484 1476 1468 1460 1451 1441 1430 1418 1405 1393 1383 1373 1363 1353 1346 1340 1336 1331 1325 1320 1316 1314 1314 1314 1315 1318 1320 1321 1323 1323 1322 1321 1326 1333 1340 1346 1353 1359 1366 1372 1379 1385
1494 1487 1480 1473 1466 1458 1447 1436 1426 1415 1403 1390 1381 1371 1362 1353 1347 1341 1337 1333 1328 1323 1319 1316 1315 1314 1314 1315 1316 1318 1319 1319 1320 1323 1328 1335 1340 1345 1351 1357 1364 1370 1376 1382
1490 1484 1478 1470 1463 1453 1443 1432 1423 1413 1403 1392 1382 1372 1362 1354 1349 1345 1341 1335 1330 1325 1321 1317 1314 1311 1310 1310 1310 1312 1313 1316 1321 1325 1330 1336 1342 1346 1350 1356 1362 1368 1374 1379
1487 1481 1474 1466 1459 1451 1442 1432 1422 1412 1403 1393 1382 1373 1364 1357 1351 1346 1341 1337 1332 1328 1322 1318 1313 1310 1307 1305 1305 1307 1312 1318 1324 1328 1331 1337 1343 1347 1351 1356 1361 1367 1372 1377
1484 1478 1472 1465 1459 1450 1441 1432 1422 1412 1404 1395 1384 1374 1366 1359 1351 1346 1341 1335 1329 1324 1319 1315 1312 1310 1307 1304 1305 1310 1316 1322 1326 1329 1333 1338 1343 1347 1351 1356 1362 1367 1372 1375
1481 1475 1467 1460 1453 1446 1438 1431 1422 1413 1405 1397 1387 1377 1369 1361 1353 1346 1340 1333 1327 1322 1318 1315 1314 1313 1312 1311 1314 1319 1323 1326 1330 1333 1337 1340 1344 1348 1353 1357 1362 1366 1371 1374